TimeCDT,TemperatureF,Dew PointF,Humidity,Sea Level PressureIn,VisibilityMPH,Wind Direction,Wind SpeedMPH,Gust SpeedMPH,PrecipitationIn,Events,Conditions,WindDirDegrees,DateUTC
12:53 AM,72.0,63.0,73,29.91,10.0,Calm,Calm,-,N/A,,Mostly Cloudy,0,2013-10-12 05:53:00
1:53 AM,72.0,63.0,73,29.91,10.0,Calm,Calm,-,N/A,,Clear,0,2013-10-12 06:53:00
2:53 AM,72.0,63.0,73,29.90,10.0,Variable,3.5,-,N/A,,Scattered Clouds,0,2013-10-12 07:53:00
3:53 AM,72.0,63.0,73,29.90,10.0,Variable,3.5,-,N/A,,Mostly Cloudy,0,2013-10-12 08:53:00
4:53 AM,70.0,64.9,84,29.91,10.0,Calm,Calm,-,N/A,,Partly Cloudy,0,2013-10-12 09:53:00
5:53 AM,73.0,66.0,79,29.92,10.0,Variable,3.5,-,N/A,,Mostly Cloudy,0,2013-10-12 10:53:00
6:26 AM,66.9,64.9,93,29.99,1.8,NW,10.4,19.6,0.07,Rain,Heavy Rain,320,2013-10-12 11:26:00
6:37 AM,64.9,64.9,100,29.99,0.5,North,-9999.0,-,0.39,Fog-Rain,Heavy Rain,0,2013-10-12 11:37:00
6:47 AM,64.4,64.4,100,30.00,3.0,South,5.8,-,0.53,Rain,Light Rain,170,2013-10-12 11:47:00
6:53 AM,64.9,64.0,97,29.97,7.0,ESE,4.6,-,0.53,Rain,Light Rain,120,2013-10-12 11:53:00
7:17 AM,64.9,64.9,100,30.02,1.0,Calm,Calm,-,0.08,Rain,Heavy Rain,0,2013-10-12 12:17:00
7:22 AM,64.9,64.0,97,30.00,0.8,Calm,Calm,-,0.20,Rain,Heavy Rain,0,2013-10-12 12:22:00
7:29 AM,64.9,64.0,97,29.99,2.0,Calm,Calm,-,0.25,Rain,Heavy Rain,0,2013-10-12 12:29:00
7:37 AM,64.9,64.0,97,29.98,5.0,Variable,3.5,-,0.28,Rain,Light Rain,0,2013-10-12 12:37:00
7:53 AM,64.9,64.0,97,29.96,7.0,Calm,Calm,-,0.28,,Mostly Cloudy,0,2013-10-12 12:53:00
8:53 AM,66.0,64.9,96,29.98,8.0,Calm,Calm,-,0.00,Rain,Light Rain,0,2013-10-12 13:53:00
9:53 AM,69.1,66.9,93,29.99,10.0,North,3.5,-,0.00,,Overcast,360,2013-10-12 14:53:00
10:09 AM,69.1,66.9,93,30.02,10.0,Calm,Calm,-,N/A,,Overcast,0,2013-10-12 15:09:00
10:53 AM,70.0,66.0,87,30.03,10.0,Calm,Calm,-,0.00,,Mostly Cloudy,0,2013-10-12 15:53:00
11:12 AM,70.0,66.9,90,30.05,1.8,Calm,Calm,-,0.03,Rain,Heavy Rain,0,2013-10-12 16:12:00
11:18 AM,69.1,66.9,93,30.05,2.0,Calm,Calm,-,0.05,Rain,Rain,0,2013-10-12 16:18:00
11:22 AM,69.1,66.9,93,30.04,3.0,ENE,3.5,-,0.06,Rain,Rain,60,2013-10-12 16:22:00
11:53 AM,71.1,66.9,87,30.03,10.0,Calm,Calm,-,0.08,,Overcast,0,2013-10-12 16:53:00
12:13 PM,72.0,66.9,84,30.05,10.0,Variable,4.6,-,N/A,,Overcast,0,2013-10-12 17:13:00
12:22 PM,72.0,66.9,84,30.05,10.0,East,3.5,-,N/A,,Overcast,80,2013-10-12 17:22:00
12:53 PM,71.1,66.9,87,30.03,10.0,SSE,5.8,-,N/A,,Overcast,150,2013-10-12 17:53:00
1:45 PM,73.0,66.0,79,30.03,10.0,Calm,Calm,-,N/A,,Overcast,0,2013-10-12 18:45:00
1:53 PM,73.9,66.0,76,30.00,10.0,SE,4.6,-,N/A,,Mostly Cloudy,130,2013-10-12 18:53:00
2:53 PM,77.0,66.9,71,29.97,10.0,SE,4.6,-,N/A,,Partly Cloudy,140,2013-10-12 19:53:00
3:53 PM,79.0,66.0,64,29.97,10.0,Calm,Calm,-,N/A,,Clear,0,2013-10-12 20:53:00
4:53 PM,78.1,66.0,66,29.98,10.0,Calm,Calm,-,N/A,,Scattered Clouds,0,2013-10-12 21:53:00
5:53 PM,73.0,69.1,87,29.99,7.0,Calm,Calm,-,N/A,,Clear,0,2013-10-12 22:53:00
6:53 PM,72.0,69.1,91,30.03,8.0,Calm,Calm,-,N/A,,Clear,0,2013-10-12 23:53:00
7:53 PM,69.1,68.0,96,30.05,8.0,Calm,Calm,-,N/A,,Partly Cloudy,0,2013-10-13 00:53:00
8:53 PM,68.0,66.9,96,30.06,6.0,NNE,3.5,-,0.00,,Clear,30,2013-10-13 01:53:00
9:18 PM,68.0,66.9,96,30.09,2.5,Calm,Calm,-,0.00,Rain,Light Rain,0,2013-10-13 02:18:00
9:25 PM,68.0,66.0,93,30.09,4.0,Calm,Calm,-,0.00,,Clear,0,2013-10-13 02:25:00
9:50 PM,66.2,66.2,100,30.09,1.0,Calm,Calm,-,0.00,Rain,Light Rain,0,2013-10-13 02:50:00
9:53 PM,66.9,66.0,97,30.08,0.5,Calm,Calm,-,0.00,Fog-Rain,Light Rain,0,2013-10-13 02:53:00
10:04 PM,66.0,64.9,96,30.10,1.2,Calm,Calm,-,0.00,,Partly Cloudy,0,2013-10-13 03:04:00
10:12 PM,66.0,64.9,96,30.10,3.0,Calm,Calm,-,0.00,,Partly Cloudy,0,2013-10-13 03:12:00
10:17 PM,66.0,64.9,96,30.10,1.8,Calm,Calm,-,0.00,,Partly Cloudy,0,2013-10-13 03:17:00
10:40 PM,64.9,64.9,100,30.11,0.8,Calm,Calm,-,0.00,,Clear,0,2013-10-13 03:40:00
10:46 PM,66.0,64.9,96,30.11,1.2,Calm,Calm,-,0.00,,Partly Cloudy,0,2013-10-13 03:46:00
10:53 PM,64.9,64.0,97,30.09,1.5,Calm,Calm,-,0.00,,Partly Cloudy,0,2013-10-13 03:53:00
11:00 PM,64.9,64.0,97,30.11,0.8,Calm,Calm,-,N/A,,Mist,0,2013-10-13 04:00:00
11:40 PM,64.0,64.0,100,30.11,1.0,Calm,Calm,-,N/A,,Mist,0,2013-10-13 04:40:00
11:53 PM,64.0,64.0,100,30.09,0.5,Calm,Calm,-,N/A,Fog,Fog,0,2013-10-13 04:53:00